STARLINK-1767, 46345

Orbit data source: Space-Track

STARLINK-1767, 46345 is a payload satellite owned by SpaceX/Seattle (US) in LEO that was launched on Thu, 03 Sep 2020 UTC via an FALCON 9 launch vehicle from the Air Force Eastern Test Range (AFETR). Payload-class satellites include a variety of spacecraft equipped with specific instruments for various scientific and technological missions. These include communications satellites like Starlink; space stations such as the ISS; scientific satellites like the Hubble; Earth observation satellites from companies like Planet Labs, Umbra, and HawkEye 360; GPS; miniature CubeSats for education and research; and military/defense satellites.

Loading next visibility...
Identifier
46345, 2020-062W
Orbit
LEO
Last TLE update
8 hours ago
Origin
Manufacturer
SpaceX/Seattle
Mission
Operational Commercial Communications
Bus & Motor
STARLINK, Unknown motor
Mass
260 kg wet, ~248 kg dry
Launch date (UTC)
2020-09-03 (5 years ago)
Launch vehicle
FALCON 9
Launch site
Air Force Eastern Test Range (AFETR)
Object type
Payload
Rocket body
Debris
Shape & HBR
Box + 1 Pan, 8.86 m
Radar Cross Section
13.562 m², Large (>1 m²)

Expand to show TLE details & history

TLE from 8 hours ago
0 STARLINK-1767
1 46345U 20062W   25191.76082076 -.00000030  00000-0  16859-4 0  9993
2 46345  53.0564  22.6780 0001305  92.4327 267.6811 15.06399338268024
Epoch: 2025-07-10T18:15Z
TLE epoch observation values (Epoch: 2025-07-10T18:15:34.913Z)
Latitude
-0.00006°
Longitude
179.86001°
Altitude
548.13 km
Speed
7.589 km/s
True Right ascension
01h 30m 42s
True Declination
0° 00' 00"
Sunlit
Object was in daylight at epoch
Visualization orbit readout
Latitude
3.18953°
Longitude
-179.2442°
Altitude
547.725 km
Speed
7.59 km/s
Apparent Right ascension
01h 57m 43s
Apparent Declination
-17° 27' 27"
Sunlit
Object is in daylight
Visualization observer readout
Local Sidereal Time
14:30:51
Azimuth
20.096° NNE
Elevation
-66.423°
Doppler factor
1
Orbital elements
Apogee altitude
548.388 km
Perigee altitude
546.58 km
Semi-major axis
6,925.621 km
Eccentricity
0.00013
Inclination
53.0564°
RAAN
22.678°
Arg. of periapsis
92.4327°
True anomaly
Unknown
Mean anomaly
267.6811°
Eccentric anomaly
Unknown
Mean motion
3.76578 °/min
Orbital period
95.6 mins
BSTAR
0.000016859
Loading maneuver chart data...
Loading SW <> Apogee altitude chart data...
Loading historical data...
Loading historical data...
Loading historical data...
Loading historical data...
Loading historical data...
Loading historical data...
Loading historical data...

STARLINK-1767 Visibility forecast

Observer location: undefined°, undefined°

Span
Click to sort rows by Start time (UTC) header in descending order
Start Az.
Max El. time (UTC)
Max El. Az.
Max El.
End time (UTC)
End Az.
7 mins2025-07-11 15:07:19.867Z214.613° SW2025-07-11 15:11:19.867Z106.844° ESE39.711°2025-07-11 15:14:19.867Z58.443° ENE
5 mins2025-07-11 16:48:19.867Z286.966° WNW2025-07-11 16:50:19.867Z324.913° NNW23.489°2025-07-11 16:53:19.867Z24.549° NE
6 mins2025-07-11 21:50:19.867Z324.672° NNW2025-07-11 21:52:19.867Z27.833° NE40.848°2025-07-11 21:56:19.867Z117.087° SE
4 mins2025-07-11 23:30:19.867Z256.407° W2025-07-11 23:31:19.867Z238.012° WSW17.734°2025-07-11 23:34:19.867Z189.051° SSW
|